Beijing Daxing International Airport

Airport
ICAO code: 
ZBAD
IATA Code: 
PKX
Summary
ICAO Region: 
APAC
Territory: 
Location: 
Tanchengcun, Beijing
Serving: 
Beijing
Elevation: 
98 ft
Coordinates: 
Aerial View: 
39° 30' 33.012" N, 116° 24' 38.016" E
Metar
Observation
ZBAD 241630Z 29001MPS 4000 BR OVC020 M01/M03 Q1024 NOSIG
Station
Beijing Daxing International Airport
Date/Time
2022-01-24 16:30:00
Wind direction
290°
Lowest cloud amount
overcast
Temperature
-1°C
Dew point
-3°C
Humidity
86%
QNH
1024 hPa
Weather condition
n/a

Beijing Daxing International Airport, located on the border of Beijing and Langfang, Hebei Province, is Beijing's second international airport.

Climatology

Humid continental climate (Köppen climate classification Dwa).

Airport map: 
Aerial View: 

SKYbrary Partners:

Safety knowledge contributed by: